#timestamp,LO_Frequency,Hit,StdDev 
1622714415.8,286047000.1,N
1622714435.7,286047002.4,N
1622714455.5,286047002.8,N
1622714475.4,286047002.5,N
1622714495.2,286047001.6,N
1622714515.0,286047002.5,N
1622714515.9,286047002.5,N
1622714535.8,286047002.1,N
1622714555.6,286047002.7,N
1622714575.4,286047000.0,N
1622714595.3,286046998.5,N
1622714615.1,286046998.1,N
1622714635.9,286047000.5,N
1622714655.7,286046999.8,N
1622714675.5,286047002.8,N
1622714695.4,286046999.9,N
1622714715.2,286047000.9,N
1622714735.0,286047002.6,N
1622714735.9,286047002.6,N
1622714755.8,286047001.6,N
1622714775.6,286047001.6,N
1622714795.5,286047000.0,N
1622714815.3,286047002.7,N
1622714835.1,286047001.0,N
1622714855.9,286047000.6,N
1622714875.7,286047001.1,N
1622714895.5,286046999.4,N
1622714915.4,286046999.1,N
1622714935.2,286046996.7,N
1622714955.0,286046996.5,N
1622714955.9,286046996.5,N
1622714975.8,286046999.3,N
1622714995.6,286046998.7,N
1622715015.5,286046998.6,N
1622715065.3,286046997.5,E
1622715075.3,286046999.5,N
1622715095.1,286046999.9,P
1622715096.0,286046999.9,N
1622715115.8,286047002.3,Y
1622715135.7,286047002.4,P
1622715155.5,286047002.0,N
1622715175.3,286047002.6,N
1622715195.2,286047004.0,Y
1622715215.0,286047004.4,P
1622715215.9,286047004.4,P
1622715235.8,286047003.8,N
1622715255.6,286047001.8,N
1622715275.4,286047001.4,N
1622715295.3,286047001.8,N
1622715315.1,286047004.2,Y
1622715335.9,286046998.4,P
1622715355.7,286047000.3,N
1622715375.5,286046998.5,N
1622715395.4,286046998.8,N
1622715415.2,286046999.3,N
1622715435.0,286046998.3,N
1622715435.9,286046998.3,N
1622715455.8,286047001.1,N
1622715475.6,286046999.0,N
1622715495.5,286046996.7,N
1622715515.3,286046997.1,N
1622715535.1,286046999.3,N
1622715555.9,286046998.3,N
1622715575.7,286046996.8,N
1622715595.5,286046997.6,N
1622715615.4,286046996.8,N
1622715635.2,286046999.1,N
1622715655.0,286046999.7,N
1622715656.0,286046999.7,N
1622715675.8,286047000.8,N
1622715695.6,286047001.0,N
1622715715.5,286047000.4,N
1622715735.3,286047001.1,N
1622715755.1,286046996.6,N
1622715775.9,286046997.4,N
1622715795.7,286046998.0,N
1622715815.6,286046997.2,N
1622715835.4,286046997.1,N
1622715855.2,286046997.0,N
1622715875.1,286046996.9,N
1622715876.0,286046996.9,N
1622715895.8,286046997.8,N
1622715915.6,286046995.8,N
1622715935.5,286046995.4,Y
1622715955.3,286046999.1,P
1622715975.2,286046996.5,P
1622715995.9,286046999.6,N
1622716015.7,286046998.9,N
1622716035.6,286046998.1,N
1622716055.4,286046998.5,N
1622716075.3,286046998.5,N
1622716095.1,286046998.7,N
1622716096.0,286046998.7,N
1622716115.8,286046998.7,N
1622716135.7,286046998.7,N
1622716155.5,286046999.4,N
1622716175.3,286046999.0,N
1622716195.2,286046998.9,N
1622716215.0,286046999.2,N
1622716215.9,286046999.2,N
1622716235.8,286046996.9,Y
1622716255.6,286047000.8,P
1622716275.4,286047001.2,N
1622716295.3,286047001.1,N
1622716315.1,286046998.7,N
1622716335.8,286046998.6,N
1622716355.7,286046998.4,N
1622716375.5,286046999.3,N
1622716395.4,286046999.6,N
1622716415.2,286046998.5,N
1622716435.0,286047000.6,N
1622716435.9,286047000.6,N
1622716455.8,286047001.0,N
1622716475.6,286046998.5,N
1622716495.5,286046998.3,N
1622716515.3,286047000.2,N
1622716535.1,286047002.7,N
1622716555.9,286046999.7,N
1622716575.7,286047001.5,N
1622716595.5,286047004.3,Y
1622716615.4,286047002.0,P
1622716635.2,286047002.1,N
1622716655.1,286047000.4,N
1622716656.0,286047000.4,N
1622716675.8,286047001.2,N
1622716695.6,286046998.3,N
1622716715.5,286047000.9,N
1622716735.3,286047000.0,N
1622716755.2,286047002.1,N
1622716775.9,286047004.2,Y
1622716795.7,286047001.7,P
1622716815.6,286047001.8,P
1622716835.4,286047004.2,P
1622716855.2,286047001.4,N
1622716875.1,286047004.1,Y
1622716876.0,286047004.1,P
1622716895.8,286047002.6,N
1622716915.7,286047002.6,N
1622716935.5,286047002.7,Y
1622716955.3,286046996.7,P
1622716975.2,286046998.0,N
1622716995.0,286046997.0,N
1622716995.9,286046997.0,N
1622717015.8,286046996.6,N
1622717035.6,286046996.5,N
1622717055.4,286046997.7,N
1622717075.3,286046997.9,N
1622717095.1,286046996.7,N
1622717115.9,286046997.5,N
1622717135.7,286046997.9,N
1622717155.5,286046995.4,N
1622717175.4,286046996.1,N
1622717195.2,286046995.8,N
1622717215.0,286046995.8,N
1622717216.0,286046995.8,N
1622717235.8,286046995.9,N
1622717255.6,286046993.3,Y
1622717275.5,286046997.3,P
1622717295.3,286046999.1,P
1622717315.1,286047000.7,N
1622717335.9,286047000.9,N
1622717355.7,286047000.8,N
1622717375.6,286047000.6,N
1622717395.4,286047000.1,N
1622717415.2,286047002.5,N
1622717435.1,286047001.9,N
1622717436.0,286047001.9,N
1622717455.8,286047002.4,N
1622717475.7,286046999.9,N
1622717495.5,286047000.2,N
1622717515.3,286046998.7,N
1622717535.2,286046999.0,N
1622717555.0,286046999.4,N
1622717555.9,286046999.4,N
1622717575.7,286046999.9,N
1622717595.6,286047001.2,N
1622717615.4,286046998.3,N
1622717635.3,286046998.1,N
1622717655.1,286046999.3,N
1622717656.0,286046999.3,N
1622717675.8,286046998.3,N
1622717695.7,286046999.1,N
1622717715.5,286046999.5,N
1622717735.3,286046997.0,N
1622717755.2,286046997.6,N
1622717775.0,286046997.2,N
1622717775.9,286046997.2,N
1622717795.8,286046997.7,N
1622717815.6,286046996.8,N
1622717835.5,286046997.8,N
1622717855.3,286046997.2,N
1622717875.1,286046997.6,N
1622717895.9,286046995.4,N
1622717915.7,286046997.6,N
1622717935.6,286046996.2,N
1622717955.4,286046995.9,N
1622717975.2,286046995.4,N
1622717995.1,286046995.6,N
1622717996.0,286046995.6,N
